FH16Y LFLJ-LFMV

Flight info

Callsign FH16Y
Flight time 0h 28m
Altitude 23000
Route MTL
Aircraft C750/M-SBDE3FGHRWXY/S

Departure

Time 2026-05-04 08:57
Airport Courchevel Altiport (LFLJ)

Arrival

Time 2026-05-04 09:25
Airport Avignon Caumont airport (LFMV)
Time Latitude Longitude Altitude Speed Heading
2026-05-04 08:50 45.39587 6.63371 6632 ft 0 kts 153°
2026-05-04 08:55 45.39585 6.63371 6635 ft 0 kts 168°
2026-05-04 08:55 45.39581 6.63366 6634 ft 1 kts 221°
2026-05-04 08:55 45.39567 6.63344 6637 ft 5 kts 229°
2026-05-04 08:57 45.40540 6.68544 8459 ft 172 kts 136°
2026-05-04 09:01 45.24208 6.40013 17103 ft 335 kts 237°
2026-05-04 09:01 45.23001 6.37078 17096 ft 355 kts 237°
2026-05-04 09:01 45.21740 6.34006 17517 ft 359 kts 238°
2026-05-04 09:01 45.20475 6.30938 18068 ft 361 kts 237°
2026-05-04 09:02 45.19211 6.27891 18595 ft 364 kts 237°
2026-05-04 09:02 45.17922 6.24784 19014 ft 366 kts 237°
2026-05-04 09:02 45.16624 6.21652 19432 ft 371 kts 237°
2026-05-04 09:02 45.15313 6.18488 19917 ft 374 kts 237°
2026-05-04 09:03 45.13990 6.15303 20430 ft 377 kts 237°
2026-05-04 09:03 45.12651 6.12085 20854 ft 382 kts 237°
2026-05-04 09:03 45.11295 6.08829 21377 ft 385 kts 237°
2026-05-04 09:03 45.09925 6.05546 21865 ft 388 kts 237°
2026-05-04 09:04 45.08545 6.02238 22351 ft 392 kts 237°
2026-05-04 09:04 45.07152 5.98903 22834 ft 392 kts 237°
2026-05-04 09:04 45.05760 5.95576 23066 ft 398 kts 237°
2026-05-04 09:04 45.04324 5.92154 23061 ft 411 kts 237°
2026-05-04 09:05 45.02845 5.88628 23057 ft 421 kts 237°
2026-05-04 09:05 45.01335 5.85028 23063 ft 427 kts 237°
2026-05-04 09:05 44.99824 5.81429 23064 ft 427 kts 237°
2026-05-04 09:05 44.98299 5.77811 23057 ft 428 kts 237°
2026-05-04 09:06 44.96776 5.74199 23059 ft 428 kts 237°
2026-05-04 09:07 44.85846 5.48404 23066 ft 456 kts 237°
2026-05-04 09:08 44.84213 5.44571 23062 ft 446 kts 237°
2026-05-04 09:08 44.82664 5.40930 23057 ft 424 kts 237°
2026-05-04 09:08 44.81162 5.37420 23049 ft 426 kts 237°
2026-05-04 09:08 44.79626 5.33840 23048 ft 428 kts 237°
2026-05-04 09:09 44.78116 5.30305 23035 ft 416 kts 237°
2026-05-04 09:09 44.76623 5.26818 23056 ft 420 kts 237°
2026-05-04 09:09 44.75101 5.23278 23053 ft 421 kts 237°
2026-05-04 09:09 44.73642 5.19878 22699 ft 392 kts 237°
2026-05-04 09:10 44.72250 5.16636 21292 ft 386 kts 237°
2026-05-04 09:10 44.70868 5.13436 20039 ft 380 kts 237°
2026-05-04 09:10 44.69500 5.10268 18892 ft 379 kts 236°
2026-05-04 09:10 44.68153 5.07144 18396 ft 368 kts 236°
2026-05-04 09:11 44.66843 5.04109 17862 ft 360 kts 236°
2026-05-04 09:11 44.65544 5.01110 17344 ft 360 kts 236°
2026-05-04 09:11 44.64235 4.98092 16829 ft 361 kts 236°
2026-05-04 09:11 44.62934 4.95090 16289 ft 360 kts 236°
2026-05-04 09:12 44.61637 4.92098 15778 ft 356 kts 236°
2026-05-04 09:12 44.60348 4.89129 15286 ft 354 kts 236°
2026-05-04 09:14 44.47517 4.77896 10903 ft 311 kts 174°
2026-05-04 09:14 44.45417 4.78316 10191 ft 300 kts 174°
2026-05-04 09:14 44.43370 4.78713 9585 ft 289 kts 174°
2026-05-04 09:14 44.41460 4.79089 9188 ft 274 kts 174°
2026-05-04 09:15 44.39630 4.79434 8903 ft 256 kts 175°
2026-05-04 09:15 44.37904 4.79764 8728 ft 248 kts 174°
2026-05-04 09:15 44.36192 4.80108 8558 ft 248 kts 174°
2026-05-04 09:15 44.34452 4.80451 8111 ft 258 kts 174°
2026-05-04 09:17 44.22534 4.82768 5031 ft 201 kts 171°
2026-05-04 09:18 44.21180 4.83031 4653 ft 197 kts 170°
2026-05-04 09:18 44.19823 4.83296 4184 ft 198 kts 169°
2026-05-04 09:18 44.18448 4.83564 3654 ft 201 kts 169°
2026-05-04 09:18 44.17056 4.83833 3187 ft 200 kts 168°
2026-05-04 09:19 44.15682 4.84100 2587 ft 207 kts 169°
2026-05-04 09:19 44.14215 4.84386 2001 ft 221 kts 170°
2026-05-04 09:19 44.12669 4.84684 1860 ft 213 kts 171°
2026-05-04 09:19 44.11246 4.84953 1866 ft 200 kts 168°
2026-05-04 09:20 44.09872 4.85216 1789 ft 196 kts 168°
2026-05-04 09:20 44.08497 4.85408 1614 ft 205 kts 172°
2026-05-04 09:20 44.07055 4.85533 1296 ft 202 kts 174°
2026-05-04 09:20 44.05732 4.85664 933 ft 182 kts 171°
2026-05-04 09:21 44.04566 4.86063 753 ft 164 kts 161°
2026-05-04 09:21 44.03537 4.86552 639 ft 151 kts 167°
2026-05-04 09:21 44.02520 4.86849 542 ft 145 kts 169°
2026-05-04 09:21 44.01548 4.87116 500 ft 136 kts 165°
2026-05-04 09:22 44.00655 4.87308 490 ft 124 kts 166°
2026-05-04 09:22 43.99844 4.87518 472 ft 118 kts 166°
2026-05-04 09:22 43.99019 4.87656 420 ft 119 kts 166°
2026-05-04 09:22 43.98193 4.87774 349 ft 123 kts 167°
2026-05-04 09:23 43.97334 4.87949 398 ft 126 kts 160°
2026-05-04 09:23 43.96489 4.88322 475 ft 128 kts 155°
2026-05-04 09:23 43.95614 4.88664 546 ft 128 kts 163°
2026-05-04 09:23 43.94738 4.88928 557 ft 132 kts 161°
2026-05-04 09:25 43.90364 4.90280 122 ft 0 kts 168°
2026-05-04 09:25 43.90363 4.90281 122 ft 0 kts 165°
2026-05-04 09:26 43.90342 4.90292 121 ft 11 kts 149°
2026-05-04 09:26 43.90254 4.90328 123 ft 12 kts 183°
2026-05-04 09:26 43.90096 4.90347 120 ft 34 kts 178°
2026-05-04 09:26 43.89892 4.90397 125 ft 19 kts 195°
2026-05-04 09:27 43.89847 4.90336 124 ft 6 kts 222°
2026-05-04 09:27 43.89815 4.90361 124 ft 6 kts 99°
2026-05-04 09:27 43.89842 4.90405 123 ft 7 kts 16°
2026-05-04 09:27 43.89903 4.90399 125 ft 11 kts 349°
2026-05-04 09:28 43.90024 4.90362 122 ft 25 kts 349°
2026-05-04 09:28 43.90248 4.90309 118 ft 41 kts 343°
2026-05-04 09:28 43.90508 4.90243 121 ft 33 kts 348°
2026-05-04 09:28 43.90650 4.90141 122 ft 18 kts 254°
2026-05-04 09:29 43.90623 4.89966 122 ft 10 kts 260°
2026-05-04 09:29 43.90625 4.89927 122 ft 2 kts 281°